RA44704 EDDM-LIPX

Flight info

Callsign RA44704
Flight time 0h 39m
Altitude 34000
Route TULSI M736 OLPIX/F200 DCT IDREK/F130 T897 ANJAT
Aircraft B752/M-SDFGHIRWY/S

Departure

Time 2026-04-30 20:43
Airport Munich Airport (EDDM)

Arrival

Time 2026-04-30 21:23
Airport Verona Villafranca Valerio Catullo Airport (LIPX)
Time Latitude Longitude Altitude Speed Heading
2026-04-30 20:22 48.35598 11.80239 1471 ft 0 kts 83°
2026-04-30 20:28 48.35596 11.80198 1471 ft 2 kts 82°
2026-04-30 20:28 48.35593 11.80162 1471 ft 2 kts 84°
2026-04-30 20:29 48.35578 11.80124 1471 ft 2 kts 34°
2026-04-30 20:30 48.35548 11.80115 1471 ft 0 kts 353°
2026-04-30 20:31 48.35598 11.80107 1471 ft 8 kts 354°
2026-04-30 20:32 48.35754 11.80070 1470 ft 11 kts 354°
2026-04-30 20:32 48.35828 11.79989 1469 ft 8 kts 270°
2026-04-30 20:33 48.35822 11.79899 1470 ft 8 kts 263°
2026-04-30 20:33 48.35807 11.79697 1470 ft 10 kts 264°
2026-04-30 20:33 48.35802 11.79622 1471 ft 6 kts 264°
2026-04-30 20:34 48.35834 11.79528 1471 ft 6 kts 346°
2026-04-30 20:34 48.35940 11.79505 1470 ft 9 kts 354°
2026-04-30 20:35 48.36014 11.79493 1469 ft 11 kts 353°
2026-04-30 20:35 48.36067 11.79483 1469 ft 5 kts 348°
2026-04-30 20:35 48.36097 11.79365 1469 ft 7 kts 265°
2026-04-30 20:36 48.36092 11.79274 1469 ft 11 kts 264°
2026-04-30 20:36 48.36081 11.79140 1470 ft 13 kts 263°
2026-04-30 20:36 48.36058 11.78846 1471 ft 14 kts 263°
2026-04-30 20:37 48.36046 11.78688 1472 ft 15 kts 263°
2026-04-30 20:37 48.36033 11.78526 1473 ft 15 kts 263°
2026-04-30 20:37 48.36020 11.78355 1473 ft 16 kts 263°
2026-04-30 20:37 48.36006 11.78177 1473 ft 17 kts 264°
2026-04-30 20:38 48.35993 11.78001 1474 ft 12 kts 264°
2026-04-30 20:38 48.35983 11.77871 1474 ft 13 kts 263°
2026-04-30 20:38 48.35972 11.77728 1474 ft 14 kts 263°
2026-04-30 20:39 48.35947 11.77415 1475 ft 15 kts 264°
2026-04-30 20:39 48.35935 11.77247 1475 ft 15 kts 263°
2026-04-30 20:39 48.35926 11.77125 1476 ft 8 kts 271°
2026-04-30 20:40 48.35995 11.76986 1475 ft 7 kts 338°
2026-04-30 20:40 48.36053 11.76970 1475 ft 9 kts 354°
2026-04-30 20:40 48.36105 11.76962 1474 ft 7 kts 354°
2026-04-30 20:41 48.36230 11.76941 1473 ft 10 kts 354°
2026-04-30 20:41 48.36291 11.76995 1473 ft 11 kts 68°
2026-04-30 20:41 48.36299 11.77059 1473 ft 5 kts 82°
2026-04-30 20:41 48.36304 11.77113 1473 ft 2 kts 83°
2026-04-30 20:42 48.36308 11.77160 1473 ft 6 kts 83°
2026-04-30 20:42 48.36315 11.77240 1472 ft 8 kts 83°
2026-04-30 20:42 48.36402 11.78364 1470 ft 137 kts 83°
2026-04-30 20:43 48.36528 11.80046 1987 ft 180 kts 85°
2026-04-30 20:43 48.36652 11.81834 3440 ft 175 kts 84°
2026-04-30 20:43 48.36793 11.83624 4349 ft 188 kts 84°
2026-04-30 20:44 48.37122 11.87910 5943 ft 227 kts 84°
2026-04-30 20:44 48.37303 11.90277 6980 ft 236 kts 83°
2026-04-30 20:44 48.37674 11.95170 9208 ft 243 kts 82°
2026-04-30 20:45 48.36929 12.00037 11223 ft 263 kts 129°
2026-04-30 20:45 48.35497 12.01780 12126 ft 277 kts 143°
2026-04-30 20:45 48.33595 12.02850 12663 ft 309 kts 169°
2026-04-30 20:46 48.26913 12.02617 15429 ft 332 kts 178°
2026-04-30 20:46 48.24589 12.02491 16322 ft 339 kts 178°
2026-04-30 20:47 48.19836 12.02221 18028 ft 352 kts 178°
2026-04-30 20:47 48.17380 12.02078 18885 ft 358 kts 178°
2026-04-30 20:48 48.12338 12.01786 20502 ft 370 kts 177°
2026-04-30 20:48 48.09786 12.01596 21217 ft 380 kts 181°
2026-04-30 20:48 48.07094 12.00689 21337 ft 413 kts 198°
2026-04-30 20:48 48.04466 11.98674 21570 ft 437 kts 213°
2026-04-30 20:49 48.02130 11.95735 22093 ft 448 kts 223°
2026-04-30 20:49 47.99800 11.92563 22780 ft 455 kts 220°
2026-04-30 20:49 47.97430 11.89492 23471 ft 461 kts 220°
2026-04-30 20:50 47.92296 11.83642 24854 ft 469 kts 207°
2026-04-30 20:50 47.89349 11.81584 25519 ft 470 kts 197°
2026-04-30 20:50 47.86187 11.80254 26132 ft 470 kts 186°
2026-04-30 20:50 47.82958 11.79692 26693 ft 470 kts 178°
2026-04-30 20:51 47.79694 11.79481 27320 ft 474 kts 178°
2026-04-30 20:51 47.73100 11.79062 28652 ft 477 kts 177°
2026-04-30 20:51 47.69795 11.78865 29385 ft 477 kts 176°
2026-04-30 20:52 47.66462 11.78673 30052 ft 477 kts 176°
2026-04-30 20:52 47.63180 11.78484 30825 ft 475 kts 176°
2026-04-30 20:52 47.56571 11.78112 32033 ft 476 kts 176°
2026-04-30 20:53 47.53298 11.77929 32366 ft 477 kts 176°
2026-04-30 20:53 47.46716 11.77557 32351 ft 470 kts 176°
2026-04-30 20:54 47.36883 11.77012 32342 ft 474 kts 176°
2026-04-30 20:55 47.27056 11.76464 32312 ft 471 kts 176°
2026-04-30 20:55 47.20474 11.76102 32332 ft 473 kts 176°
2026-04-30 20:56 47.10656 11.74543 32332 ft 484 kts 193°
2026-04-30 20:57 47.01359 11.68750 32314 ft 485 kts 202°
2026-04-30 20:57 46.95190 11.64642 32310 ft 488 kts 202°
2026-04-30 20:58 46.85944 11.58464 32294 ft 484 kts 202°
2026-04-30 20:58 46.79813 11.54375 32295 ft 487 kts 202°
2026-04-30 20:59 46.70617 11.48260 32037 ft 491 kts 203°
2026-04-30 21:01 46.51723 11.35751 28278 ft 474 kts 204°
2026-04-30 21:01 46.48748 11.33788 27679 ft 468 kts 202°
2026-04-30 21:01 46.42750 11.30322 26483 ft 458 kts 202°
2026-04-30 21:02 46.39973 11.28200 25874 ft 452 kts 213°
2026-04-30 21:02 46.37423 11.25713 25445 ft 442 kts 210°
2026-04-30 21:02 46.34699 11.23592 24889 ft 442 kts 207°
2026-04-30 21:02 46.31988 11.21543 24266 ft 441 kts 207°
2026-04-30 21:03 46.29291 11.19518 23700 ft 434 kts 207°
2026-04-30 21:03 46.26630 11.17533 23128 ft 427 kts 207°
2026-04-30 21:03 46.24027 11.15595 22577 ft 422 kts 207°
2026-04-30 21:03 46.21440 11.13676 22047 ft 419 kts 207°
2026-04-30 21:04 46.18844 11.11751 21539 ft 417 kts 207°
2026-04-30 21:04 46.16294 11.09864 21015 ft 414 kts 207°
2026-04-30 21:04 46.11216 11.06094 20002 ft 406 kts 208°
2026-04-30 21:05 46.08763 11.04104 19480 ft 404 kts 210°
2026-04-30 21:05 46.06327 11.02120 18964 ft 402 kts 210°
2026-04-30 21:05 46.03921 11.00168 18447 ft 397 kts 210°
2026-04-30 21:05 46.01539 10.98237 17967 ft 394 kts 210°
2026-04-30 21:06 45.99150 10.96305 17472 ft 390 kts 210°
2026-04-30 21:06 45.96790 10.94398 16958 ft 386 kts 210°
2026-04-30 21:06 45.94479 10.92531 16473 ft 383 kts 210°
2026-04-30 21:06 45.92130 10.90637 15984 ft 381 kts 210°
2026-04-30 21:07 45.89864 10.88811 15492 ft 379 kts 210°
2026-04-30 21:07 45.87544 10.86944 14988 ft 375 kts 210°
2026-04-30 21:07 45.85289 10.85130 14514 ft 369 kts 210°
2026-04-30 21:07 45.83024 10.83442 14069 ft 366 kts 201°
2026-04-30 21:08 45.80582 10.82564 13657 ft 364 kts 184°
2026-04-30 21:08 45.78077 10.82391 13182 ft 361 kts 180°
2026-04-30 21:08 45.75608 10.82282 12698 ft 354 kts 180°
2026-04-30 21:08 45.73181 10.82194 12222 ft 346 kts 180°
2026-04-30 21:09 45.70775 10.82119 11833 ft 345 kts 180°
2026-04-30 21:09 45.68397 10.82051 11397 ft 343 kts 180°
2026-04-30 21:09 45.66029 10.81986 10953 ft 337 kts 181°
2026-04-30 21:09 45.63710 10.81554 10592 ft 331 kts 194°
2026-04-30 21:10 45.61615 10.80775 10558 ft 313 kts 194°
2026-04-30 21:10 45.59554 10.80026 10502 ft 299 kts 194°
2026-04-30 21:10 45.57598 10.79305 10278 ft 285 kts 194°
2026-04-30 21:10 45.55679 10.78592 10122 ft 284 kts 194°
2026-04-30 21:11 45.53758 10.77876 9993 ft 290 kts 194°
2026-04-30 21:11 45.51795 10.77144 9848 ft 288 kts 194°
2026-04-30 21:11 45.49870 10.76421 9750 ft 287 kts 194°
2026-04-30 21:11 45.47948 10.75699 9670 ft 287 kts 194°
2026-04-30 21:12 45.46019 10.74975 9578 ft 286 kts 194°
2026-04-30 21:12 45.44078 10.74247 9486 ft 286 kts 194°
2026-04-30 21:12 45.42150 10.73524 9405 ft 285 kts 194°
2026-04-30 21:12 45.40299 10.72539 9319 ft 285 kts 214°
2026-04-30 21:13 45.38781 10.70731 8983 ft 291 kts 225°
2026-04-30 21:13 45.37346 10.68748 8497 ft 290 kts 224°
2026-04-30 21:13 45.35888 10.66731 8009 ft 292 kts 224°
2026-04-30 21:13 45.34475 10.64705 7708 ft 287 kts 226°
2026-04-30 21:14 45.33096 10.62669 7204 ft 290 kts 226°
2026-04-30 21:14 45.31707 10.60621 6668 ft 281 kts 225°
2026-04-30 21:14 45.30393 10.58684 6156 ft 269 kts 225°
2026-04-30 21:14 45.29118 10.56842 5842 ft 252 kts 225°
2026-04-30 21:15 45.27920 10.55158 5622 ft 231 kts 216°
2026-04-30 21:15 45.26497 10.54296 5621 ft 230 kts 182°
2026-04-30 21:15 45.24894 10.54647 5267 ft 237 kts 152°
2026-04-30 21:15 45.23529 10.55934 4809 ft 241 kts 139°
2026-04-30 21:16 45.22235 10.57438 4578 ft 235 kts 134°
2026-04-30 21:16 45.21401 10.59296 4407 ft 224 kts 104°
2026-04-30 21:16 45.21400 10.61497 3960 ft 228 kts 72°
2026-04-30 21:16 45.22219 10.63390 3707 ft 226 kts 53°
2026-04-30 21:17 45.23207 10.65080 3535 ft 220 kts 53°
2026-04-30 21:17 45.24191 10.66700 3353 ft 216 kts 49°
2026-04-30 21:17 45.25245 10.68203 3162 ft 212 kts 47°
2026-04-30 21:17 45.26275 10.69653 3020 ft 206 kts 48°
2026-04-30 21:18 45.27256 10.71073 3003 ft 194 kts 49°
2026-04-30 21:18 45.28165 10.72386 3014 ft 181 kts 48°
2026-04-30 21:18 45.29015 10.73605 2982 ft 170 kts 48°
2026-04-30 21:18 45.29845 10.74804 2750 ft 167 kts 49°
2026-04-30 21:19 45.30629 10.75936 2520 ft 156 kts 48°
2026-04-30 21:19 45.31364 10.76990 2344 ft 141 kts 49°
2026-04-30 21:19 45.31996 10.77904 2208 ft 122 kts 49°
2026-04-30 21:19 45.32585 10.78755 2032 ft 120 kts 49°
2026-04-30 21:20 45.33171 10.79604 1859 ft 122 kts 49°
2026-04-30 21:20 45.33753 10.80463 1674 ft 121 kts 49°
2026-04-30 21:20 45.34352 10.81317 1483 ft 121 kts 46°
2026-04-30 21:20 45.34963 10.82137 1297 ft 120 kts 47°
2026-04-30 21:21 45.35553 10.82964 1158 ft 120 kts 48°
2026-04-30 21:21 45.36127 10.83827 1045 ft 121 kts 49°
2026-04-30 21:21 45.37317 10.85571 685 ft 121 kts 47°
2026-04-30 21:22 45.37899 10.86424 517 ft 120 kts 47°
2026-04-30 21:22 45.39560 10.88841 246 ft 83 kts 48°
2026-04-30 21:23 45.39869 10.89287 245 ft 44 kts 46°
2026-04-30 21:23 45.40026 10.89519 245 ft 29 kts 45°
2026-04-30 21:23 45.40233 10.89821 245 ft 9 kts 46°
2026-04-30 21:24 45.40273 10.89897 245 ft 9 kts 72°
2026-04-30 21:24 45.40289 10.89996 245 ft 10 kts 78°
2026-04-30 21:24 45.40306 10.90110 245 ft 12 kts 78°
2026-04-30 21:24 45.40327 10.90227 245 ft 11 kts 73°
2026-04-30 21:25 45.40360 10.90358 245 ft 4 kts 103°
2026-04-30 21:25 45.40339 10.90401 245 ft 4 kts 133°
2026-04-30 21:25 45.40327 10.90418 245 ft 0 kts 135°